Regional Weather Roundup
Issued by NWS Grand Forks, ND

Home | Current Version | Previous Version | Graphics & Text | Print | Product List | Glossary On
Versions: 1 2 3 4 5 6 7 8 9 10 11 12 13 14 15 16 17 18 19 20 21 22 23 24 25 26 27 28 29 30 31 32 33 34 35 36 37 38 39 40 41 42 43 44 45 46 47 48 49 50
000
ASUS43 KFGF 231431
RWRFGF
PRAIRIE TO PINES  WEATHER ROUNDUP
NATIONAL WEATHER SERVICE EASTERN NORTH DAKOTA/GRAND FORKS ND
800 AM CST MON JAN 23 2017

 **SATELLITE DATA USED TO AUGMENT SKY COVER AT AUTOMATED STATIONS**
 *****  WEATHER ACROSS EASTERN NORTH DAKOTA  *****

CITY           SKY/WX    TMP DP  RH WIND       PRES   REMARKS
GRAND FORKS    CLOUDY    32  25  75 NW7       29.77S
GRAND FRKS AFB CLOUDY    30  24  77 NW9       29.77S WCI  22
DEVILS LAKE    CLOUDY    27  22  81 W10       29.76S WCI  17
FARGO          CLOUDY    34  28  79 SW6       29.79F
WAHPETON ARPT  CLOUDY    32  27  80 NW6       29.81S
$$

 ***** WEATHER ACROSS CENTRAL AND WESTERN NORTH DAKOTA  *****

CITY           SKY/WX    TMP DP  RH WIND       PRES   REMARKS
BISMARCK       CLOUDY    29  23  78 W3        29.81S
MINOT          CLOUDY    27  21  78 NW8       29.75S WCI  19
JAMESTOWN      CLOUDY    29  24  82 W6        29.78R WCI  23
MINOT AFB      CLOUDY    25  20  83 W7        29.75S WCI  17
GARRISON         N/A     27  23  85 W6        29.76S WCI  20
WILLISTON      CLOUDY    25  22  88 N7        29.77R WCI  17
DICKINSON      CLOUDY    23  19  85 SE3       29.73S
HETTINGER      FOG       22  21  96 E8        29.76R VSB 1/4 WCI  12
$$

 *****  OTHER AIRPORT OBSERVATIONS IN OUR AREA  *****

CITY           SKY/WX    TMP DP  RH WIND       PRES   REMARKS
WALHALLA       NOT AVBL
GRAFTON AIRPOR   N/A     30  28  93 W9        29.78S WCI  22
VALLEY CITY AR CLOUDY    28  28 100 W7        29.81R WCI  21
CANDO          NOT AVBL
CAVALIER APRT  CLOUDY    32  27  80 SW5       29.75S
GWINNER        CLOUDY    32  28  86 W6        29.82R
SHEYENNE NWR     N/A     31  25  80 W2        29.95S
ROLLA            N/A    N/A N/A N/A MISG        N/A
 ***** THE ABOVE OBSERVATIONS ARE NON NWS ARE NOT QUALITY
       CONTROLLED AND MAY MIS-REPORT RAIN FOR SNOW...
$$

  *****  WEATHER ACROSS NORTHERN MINNESOTA  *****

CITY           SKY/WX    TMP DP  RH WIND       PRES   REMARKS
FLAG ISLAND    LGT SNOW  32  30  93 SW5       29.73S
WARROAD        CLOUDY    30  27  86 SW6       29.74F WCI  24
ROSEAU         CLOUDY    30  27  86 SW3       29.74F
HALLOCK        CLOUDY    30  30 100 SW5       29.75S
THF RVR FALLS  CLOUDY    30  28  92 SW6       29.77F WCI  24
BAUDETTE       CLOUDY    32  30  92 SW5       29.74S FOG
WASKISH        CLOUDY    32  30  93 SW8       29.75F FOG     WCI  25
CROOKSTON      CLOUDY    30  28  93 W5        29.78F
STEPHEN NDAWN    N/A     30  28  93 SW3         N/A
GREENBUSH NDAW   N/A     30  28  93 S3          N/A
$$
  *****  WEATHER ACROSS CENTRAL AND WEST MINNESOTA  *****

CITY           SKY/WX    TMP DP  RH WIND       PRES   REMARKS
FOSSTON        CLOUDY    28  27  93 SW3       29.77F
BEMIDJI        CLOUDY    30  28  92 W6        29.76S WCI  24
PARK RAPIDS    CLOUDY    32  25  75 NW8       29.76F WCI  25
ELBOW LAKE     CLOUDY    31  28  89 W7        29.80S FOG     WCI  24
WADENA         CLOUDY    28  28 100 NW3       29.76F
DETROIT LAKES  FAIR      32  30  93 CALM      29.78S
MOORHEAD       CLOUDY    32  27  80 W5        29.80S
FERGUS FALLS   CLOUDY    32  28  86 NW8       29.84R WCI  25
MORRIS MN      CLOUDY    32  30  93 NW6       29.79F
STAPLES        CLOUDY    28  28 100 NW5       29.77F WCI  23
$$
  *****  WEATHER ELSEWHERE ACROSS MINNESOTA  *****

CITY           SKY/WX    TMP DP  RH WIND       PRES   REMARKS
DULUTH         CLOUDY    34  33  96 NW7       29.74R FOG
INTRNTL FALLS  CLOUDY    32  31  96 W6        29.74S FOG
ELY            FLURRIES  32  32 100 CALM      29.73S
CLOQUET        CLOUDY    34  34 100 W7        29.76R FOG
WHEATON        CLOUDY    37  34  87 W3        29.84R
BRAINERD       CLOUDY    31  30  96 W6        29.78S FOG
HIBBING        CLOUDY    32  32 100 CALM      29.75R
ALEXANDRIA     CLOUDY    31  28  89 NW7       29.79F WCI  24
SAINT CLOUD    CLOUDY    32  32 100 NW6       29.79S FOG
MINNEAPOLIS    LGT SNOW  33  31  92 NW5       29.81R FOG
$$

  *****  WEATHER ACROSS SOUTH DAKOTA  *****

CITY           SKY/WX    TMP DP  RH WIND       PRES   REMARKS
SIOUX FALLS    FLURRIES  30  28  92 W5        29.86R
BROOKINGS      CLOUDY    29  27  92 W7        29.83R WCI  22
WATERTOWN      CLOUDY    28  26  92 W8        29.81R WCI  20
HURON          CLOUDY    29  26  89 CALM      29.86R
SISSETON         N/A     32  29  88 NW7       29.81R
ABERDEEN       CLOUDY    30  24  78 SW3       29.84R
MITCHELL       CLOUDY    31  26  82 CALM      29.87S
PIERRE         CLOUDY    26  23  88 SE5       29.81F WCI  20
MOBRIDGE       CLOUDY    28  23  81 SW3       29.79S
RAPID CITY     CLOUDY    22  20  92 E3        29.67S
$$

  *****  SOME WEATHER IN NEARBY STATES *****

CITY           SKY/WX    TMP DP  RH WIND       PRES   REMARKS
GLASGOW MT     CLOUDY    26  24  92 W8        29.75R WCI  18
GREAT FALLS MT CLOUDY    22  20  92 W3        29.70S
CHEYENNE WY    FAIR      23  13  65 CALM      29.59F
SCOTTSBLUFF NE CLOUDY    26  21  81 E6        29.64F WCI  19
OMAHA NE       CLOUDY    32  26  78 NW8       29.90R WCI  25
DES MOINES IA  DRIZZLE   33  30  88 N7        29.85S
DAVENPORT IA   CLOUDY    35  33  92 NW8       29.82R FOG
CHICAGO IL     CLOUDY    38  35  89 N12       29.74R
EAU CLAIRE WI  FOG       33  33 100 SW3       29.80R VSB 3/4
LA CROSSE WI   CLOUDY    37  33  85 CALM      29.82R FOG
$$

  *****  SOME NATIONAL WEATHER *****

CITY           SKY/WX    TMP DP  RH WIND       PRES   REMARKS
LA GUARDIA NY  CLOUDY    42  31  64 E22G39    29.85F
RALEIGH NC     PTSUNNY   53  50  89 SW16      29.25R
ATLANTA GA     CLOUDY    49  48  97 W12       29.32R
NEW ORLEANS LA FAIR      55  45  68 W14       29.81R
OKLAHOMA CITY  FAIR      28  26  92 S7        29.91F WCI  21
ALBUQUERQUE NM FAIR      32  28  85 SE6       29.99R
SALT LAKE CITY CLOUDY    38  31  76 SE17G28   29.50F
LOS ANGELES CA MOCLDY    54  45  71 W23G31    29.88R
BOISE ID       LGT SNOW  28  27  96 W5        29.58R FOG     WCI  23
SEATTLE WA     MOCLDY    38  31  76 E6        29.69R
$$

*** WEATHER ACROSS MANITOBA...SASKATCHEWAN AND ONTARIO ***
                ***ONTARIO***

CITY           SKY/WX    TMP DP  RH WIND       PRES   REMARKS
GERALDTON      FOG       32  32 100 CALM      29.73S VSB 1/8
THUNDER BAY    MOCLDY    32  32 100 SW3       29.75R
SIOUX LOOKOUT  LGT SNOW  30  30 100 SE2       29.72S
TORONTO        DRIZZLE   36  34  93 E12G18    29.79R FOG
BIG TROUT LK   LGT SNOW  23  21  93 E5        29.81  WCI  17
PICKLE LAKE    LGT SNOW  27  25  93 E2        29.74R
DRYDEN         CLOUDY    32  32 100 S5        29.71F FOG
KENORA         LGT SNOW  32  32 100 SW5       29.71S VSB 5/8
$$
                *** MANITOBA***

CITY           SKY/WX    TMP DP  RH WIND       PRES   REMARKS
BRANDON        CLOUDY    23  21  93 W14       29.69F WCI  11
DAUPHIN        FLURRIES  28  25  86 W14       29.67S WCI  17
ISLAND LAKE    FLURRIES  28  27  93 NE5       29.75  WCI  23
PILOT MOUND      N/A     25  21  86 W6          N/A  WCI  18
THE PAS        LGT SNOW  23  21  93 N9        29.77S WCI  13
THOMPSON       LGT SNOW  14  10  85 NE12      29.87S DRFTSNOWWCI   0
WINNIPEG       CLOUDY    30  28  93 SW7       29.72S WCI  23
LYNN LAKE      LGT SNOW   7   3  85 NE10      29.92S WCI  -8
CHURCHILL      CLOUDY    21  19  93 E15       30.02F FOG     WCI   8
GILLAM         LGT SNOW  21  19  93 NE12      29.87F WCI   9
$$
                ***SASKATCHEWAN***

CITY           SKY/WX    TMP DP  RH WIND       PRES   REMARKS
ESTEVAN        CLOUDY    21  18  86 W10       29.75S WCI  10
KINDERSLEY     PTCLDY    10   7  85 NW6       29.79S WCI   1
LLOYDMINSTER   LGT SNOW   9   7  92 N7        29.83F WCI  -3
PRINCE ALBERT  LGT SNOW  16  12  86 N10       29.80S WCI   3
REGINA         CLOUDY    18  14  86 W12       29.75S WCI   5
YORKTON        FLURRIES  21  19  93 W9        29.68S WCI  11
N. BATTLEFORD  FLURRIES  10  10 100 NW9       29.84S WCI  -2
LA RONGE       FLURRIES  10   7  85 N7        29.89S WCI   0
SASKATOON      FLURRIES  14   9  79 N10       29.82  WCI   1
SWIFT CURRENT  CLOUDY    14  14 100 NW13G18   29.73S WCI   0
$$
NOTE: THESE ARE AUTOMATED STATIONS WITH LIMITED QUALITY CONTROL
      "FAIR" INDICATES FEW OR NO CLOUDS BELOW 12,000 FEET WITH NO
      SIGNIFICANT WEATHER AND/OR OBSTRUCTIONS TO VISIBILITY.
      SKY/WX - SKY CONDITION AND SIGNIFICANT WEATHER.
      TMP - AIR TEMPERATURE.    DP   - DEWPOINT TEMPERATURE.
      RH  - RELATIVE HUMIDITY.  PRES - PRESSURE.
      HX  - HEAT INDEX.         WCI  - WIND CHILL INDEX.
$




USA.gov is the U.S. government's official web portal to all federal, state and local government web resources and services.